Location: Croagnes
(43.9363°N, 5.3265°E)
Time: 20:36:48
(UTC+00:00)

KORONAS-FOTON - Pass Details

Date: 06 June 2020
Orbit: 506 x 532 km, 82.4° (Epoch: 09 July)

Event Time Altitude Azimuth Distance (km) Brightness Sun altitude
Exits shadow 22:42:14 79° 253° (WSW) 536 3.7 -22.1°
Maximum altitude 22:42:20 80° 278° (W) 535 3.7 -22.1°
Drops below altitude 10° 22:46:13 10° 6° (N) 1,771 7.5 -22.3°
Sets 22:48:23 0° 8° (N) 2,669 8.6 -22.3°
